Time,TemperatureF,DewpointF,PressureIn,WindDirection,WindDirectionDegrees,WindSpeedMPH,WindSpeedGustMPH,Humidity,HourlyPrecipIn,Conditions,Clouds,dailyrainin,SoftwareType,DateUTC
2013-03-15 00:00:00,22.1,19.3,30.00,WNW,292,0.0,0.0,89,0.00,,,0.02,WUHU21623XXSP,2013-03-15 05:00:00,
2013-03-15 00:05:00,22.1,19.3,30.00,WNW,292,0.0,0.0,89,0.00,,,0.00,WUHU21623XXSP,2013-03-15 05:05:00,
2013-03-15 00:10:00,22.3,19.8,30.00,WNW,292,0.0,0.0,90,0.00,,,0.00,WUHU21623XXSP,2013-03-15 05:10:00,
2013-03-15 00:15:00,22.3,19.8,29.99,WNW,292,0.0,0.0,90,0.00,,,0.00,WUHU21623XXSP,2013-03-15 05:15:00,
2013-03-15 00:20:00,22.1,19.6,29.99,WNW,292,0.0,0.0,90,0.00,,,0.00,WUHU21623XXSP,2013-03-15 05:20:00,
2013-03-15 00:25:00,22.5,19.9,29.99,NNE,22,0.0,0.0,90,0.00,,,0.00,WUHU21623XXSP,2013-03-15 05:25:00,
2013-03-15 00:30:00,22.3,19.8,29.99,NNE,22,0.0,0.0,90,0.00,,,0.00,WUHU21623XXSP,2013-03-15 05:30:00,
2013-03-15 00:35:00,22.1,19.6,30.00,NNE,22,0.0,0.0,90,0.00,,,0.00,WUHU21623XXSP,2013-03-15 05:35:00,
2013-03-15 00:40:00,21.9,19.4,29.98,NNE,22,0.0,0.0,90,0.00,,,0.00,WUHU21623XXSP,2013-03-15 05:40:00,
2013-03-15 00:45:00,21.9,19.2,29.98,NNE,22,0.0,0.0,90,0.00,,,0.00,WUHU21623XXSP,2013-03-15 05:45:00,
2013-03-15 00:50:00,21.9,19.4,29.98,NNE,22,0.0,0.0,90,0.00,,,0.00,WUHU21623XXSP,2013-03-15 05:50:00,
2013-03-15 00:55:00,22.1,19.4,29.98,NNE,22,0.0,0.0,90,0.00,,,0.00,WUHU21623XXSP,2013-03-15 05:55:00,
2013-03-15 01:00:00,22.1,19.6,29.98,NNE,22,0.0,0.0,90,0.00,,,0.00,WUHU21623XXSP,2013-03-15 06:00:00,
2013-03-15 01:05:00,22.1,19.6,29.98,NNE,22,0.0,0.0,90,0.00,,,0.00,WUHU21623XXSP,2013-03-15 06:05:00,
2013-03-15 01:10:00,22.1,19.6,29.98,NNE,22,0.0,0.0,90,0.00,,,0.00,WUHU21623XXSP,2013-03-15 06:10:00,
2013-03-15 01:15:00,22.3,19.8,29.97,NNE,22,0.0,0.0,90,0.00,,,0.00,WUHU21623XXSP,2013-03-15 06:15:00,
2013-03-15 01:20:00,21.9,19.6,29.97,NNE,22,0.0,0.0,90,0.00,,,0.00,WUHU21623XXSP,2013-03-15 06:20:00,
2013-03-15 01:25:00,21.4,18.9,29.97,NNE,22,0.0,0.0,90,0.00,,,0.00,WUHU21623XXSP,2013-03-15 06:25:00,
2013-03-15 01:30:00,20.8,18.3,29.97,NNE,22,0.0,0.0,90,0.00,,,0.00,WUHU21623XXSP,2013-03-15 06:30:00,
2013-03-15 01:35:00,20.5,18.1,29.97,NNE,22,0.0,0.0,90,0.00,,,0.00,WUHU21623XXSP,2013-03-15 06:35:00,
2013-03-15 01:40:00,20.3,17.8,29.97,NNE,22,0.0,0.0,90,0.00,,,0.00,WUHU21623XXSP,2013-03-15 06:40:00,
2013-03-15 01:45:00,20.1,17.8,29.96,NNE,22,0.0,0.0,90,0.00,,,0.00,WUHU21623XXSP,2013-03-15 06:45:00,
2013-03-15 01:50:00,20.1,17.6,29.96,NNE,22,0.0,0.0,90,0.00,,,0.00,WUHU21623XXSP,2013-03-15 06:50:00,
2013-03-15 01:55:00,20.1,17.6,29.95,NNE,22,0.0,0.0,90,0.00,,,0.00,WUHU21623XXSP,2013-03-15 06:55:00,
2013-03-15 02:00:00,20.3,17.6,29.96,NNE,22,0.0,0.0,90,0.00,,,0.00,WUHU21623XXSP,2013-03-15 07:00:00,
2013-03-15 02:05:00,20.5,18.0,29.96,NNE,22,0.0,0.0,90,0.00,,,0.00,WUHU21623XXSP,2013-03-15 07:05:00,
2013-03-15 02:10:00,21.0,18.3,29.96,NNE,22,0.0,0.0,90,0.00,,,0.00,WUHU21623XXSP,2013-03-15 07:10:00,
2013-03-15 02:15:00,21.0,18.5,29.96,NNE,22,0.0,0.0,90,0.00,,,0.00,WUHU21623XXSP,2013-03-15 07:15:00,
2013-03-15 02:20:00,21.0,18.5,29.96,NNE,22,0.0,0.0,90,0.00,,,0.00,WUHU21623XXSP,2013-03-15 07:20:00,
2013-03-15 02:25:00,20.8,18.3,29.95,NNE,22,0.0,0.0,90,0.00,,,0.00,WUHU21623XXSP,2013-03-15 07:25:00,
2013-03-15 02:30:00,21.0,18.5,29.95,NNE,22,0.0,0.0,90,0.00,,,0.00,WUHU21623XXSP,2013-03-15 07:30:00,
2013-03-15 02:35:00,21.4,18.9,29.95,NNE,22,0.0,0.0,90,0.00,,,0.00,WUHU21623XXSP,2013-03-15 07:35:00,
2013-03-15 02:40:00,21.4,18.9,29.95,NW,315,0.0,0.0,90,0.00,,,0.00,WUHU21623XXSP,2013-03-15 07:40:00,
2013-03-15 02:45:00,21.4,18.9,29.95,NW,315,0.0,0.0,90,0.00,,,0.00,WUHU21623XXSP,2013-03-15 07:45:00,
2013-03-15 02:50:00,21.6,19.3,29.95,NW,315,0.0,0.0,91,0.00,,,0.00,WUHU21623XXSP,2013-03-15 07:50:00,
2013-03-15 02:55:00,21.4,18.9,29.95,North,0,0.0,0.0,90,0.00,,,0.00,WUHU21623XXSP,2013-03-15 07:55:00,
2013-03-15 03:00:00,21.0,18.5,29.94,North,0,0.0,0.0,90,0.00,,,0.00,WUHU21623XXSP,2013-03-15 08:00:00,
2013-03-15 03:05:00,21.0,18.5,29.94,WSW,247,0.0,0.7,90,0.00,,,0.00,WUHU21623XXSP,2013-03-15 08:05:00,
2013-03-15 03:10:00,21.4,18.5,29.94,SW,225,2.0,2.0,90,0.00,,,0.00,WUHU21623XXSP,2013-03-15 08:10:00,
2013-03-15 03:15:00,21.0,18.5,29.93,WSW,247,0.0,2.0,90,0.00,,,0.00,WUHU21623XXSP,2013-03-15 08:15:00,
2013-03-15 03:20:00,21.4,18.7,29.93,West,270,0.0,2.0,90,0.00,,,0.00,WUHU21623XXSP,2013-03-15 08:20:00,
2013-03-15 03:25:00,21.4,18.9,29.93,WSW,247,0.0,0.0,90,0.00,,,0.00,WUHU21623XXSP,2013-03-15 08:25:00,
2013-03-15 03:30:00,21.0,18.5,29.93,WSW,247,0.0,0.0,90,0.00,,,0.00,WUHU21623XXSP,2013-03-15 08:30:00,
2013-03-15 03:35:00,21.0,18.5,29.93,WSW,247,0.0,0.0,90,0.00,,,0.00,WUHU21623XXSP,2013-03-15 08:35:00,
2013-03-15 03:40:00,21.6,19.3,29.93,NNW,337,0.0,0.0,91,0.00,,,0.00,WUHU21623XXSP,2013-03-15 08:40:00,
2013-03-15 03:45:00,21.6,19.3,29.92,NNW,337,0.0,0.0,91,0.00,,,0.00,WUHU21623XXSP,2013-03-15 08:45:00,
2013-03-15 03:50:00,21.4,18.9,29.92,NNW,337,0.0,0.0,90,0.00,,,0.00,WUHU21623XXSP,2013-03-15 08:50:00,
2013-03-15 03:55:00,21.9,19.7,29.92,South,180,0.0,0.0,91,0.00,,,0.00,WUHU21623XXSP,2013-03-15 08:55:00,
2013-03-15 04:00:00,21.7,19.7,29.92,SSW,202,0.0,0.0,91,0.00,,,0.00,WUHU21623XXSP,2013-03-15 09:00:00,
2013-03-15 04:05:00,21.6,19.0,29.91,SSW,202,0.0,0.0,90,0.00,,,0.00,WUHU21623XXSP,2013-03-15 09:05:00,
2013-03-15 04:10:00,21.4,18.9,29.90,SSW,202,0.0,0.0,90,0.00,,,0.00,WUHU21623XXSP,2013-03-15 09:10:00,
2013-03-15 04:15:00,21.6,18.9,29.91,SSW,202,0.0,0.0,91,0.00,,,0.00,WUHU21623XXSP,2013-03-15 09:15:00,
2013-03-15 04:20:00,21.7,19.5,29.90,NNW,337,0.0,0.0,90,0.00,,,0.00,WUHU21623XXSP,2013-03-15 09:20:00,
2013-03-15 04:25:00,21.7,19.2,29.90,NNW,337,0.0,0.0,90,0.00,,,0.00,WUHU21623XXSP,2013-03-15 09:25:00,
2013-03-15 04:30:00,21.7,19.5,29.90,NNW,337,0.0,0.0,91,0.00,,,0.00,WUHU21623XXSP,2013-03-15 09:30:00,
2013-03-15 04:35:00,21.7,19.5,29.90,NNW,337,0.0,0.0,91,0.00,,,0.00,WUHU21623XXSP,2013-03-15 09:35:00,
2013-03-15 04:40:00,21.9,19.7,29.90,NNW,337,0.0,0.0,91,0.00,,,0.00,WUHU21623XXSP,2013-03-15 09:40:00,
2013-03-15 04:45:00,21.9,19.7,29.90,North,0,0.0,0.0,91,0.00,,,0.00,WUHU21623XXSP,2013-03-15 09:45:00,
2013-03-15 04:50:00,21.9,19.7,29.90,North,0,0.0,0.0,91,0.00,,,0.00,WUHU21623XXSP,2013-03-15 09:50:00,
2013-03-15 04:55:00,21.9,19.7,29.90,North,0,0.0,0.0,91,0.00,,,0.00,WUHU21623XXSP,2013-03-15 09:55:00,
2013-03-15 05:00:00,21.9,19.7,29.90,North,0,0.0,0.0,91,0.00,,,0.00,WUHU21623XXSP,2013-03-15 10:00:00,
2013-03-15 05:05:00,21.9,19.7,29.89,North,0,0.0,0.0,91,0.00,,,0.00,WUHU21623XXSP,2013-03-15 10:05:00,
2013-03-15 05:10:00,22.1,19.8,29.90,North,0,0.0,0.0,91,0.00,,,0.00,WUHU21623XXSP,2013-03-15 10:10:00,
2013-03-15 05:15:00,22.3,20.0,29.89,North,0,0.0,0.0,91,0.00,,,0.00,WUHU21623XXSP,2013-03-15 10:15:00,
2013-03-15 05:20:00,22.3,20.0,29.89,North,0,0.0,0.0,91,0.00,,,0.00,WUHU21623XXSP,2013-03-15 10:20:00,
2013-03-15 05:25:00,22.3,19.8,29.89,North,0,0.0,0.0,90,0.00,,,0.00,WUHU21623XXSP,2013-03-15 10:25:00,
2013-03-15 05:30:00,22.3,20.0,29.89,North,0,0.0,0.0,91,0.00,,,0.00,WUHU21623XXSP,2013-03-15 10:30:00,
2013-03-15 05:35:00,22.1,19.8,29.89,NW,315,0.0,0.0,91,0.00,,,0.00,WUHU21623XXSP,2013-03-15 10:35:00,
2013-03-15 05:40:00,22.3,20.0,29.89,NW,315,0.0,0.0,91,0.00,,,0.00,WUHU21623XXSP,2013-03-15 10:40:00,
2013-03-15 05:45:00,22.3,20.0,29.89,NW,315,0.0,0.0,91,0.00,,,0.00,WUHU21623XXSP,2013-03-15 10:45:00,
2013-03-15 05:50:00,21.9,19.8,29.88,NE,45,0.0,0.0,91,0.00,,,0.00,WUHU21623XXSP,2013-03-15 10:50:00,
2013-03-15 05:55:00,21.9,19.7,29.89,WNW,292,0.0,0.0,91,0.00,,,0.00,WUHU21623XXSP,2013-03-15 10:55:00,
2013-03-15 06:00:00,22.3,19.8,29.89,WNW,292,0.0,0.0,91,0.00,,,0.00,WUHU21623XXSP,2013-03-15 11:00:00,
2013-03-15 06:05:00,22.8,20.4,29.89,NNE,22,0.0,0.0,91,0.00,,,0.00,WUHU21623XXSP,2013-03-15 11:05:00,
2013-03-15 06:10:00,22.8,20.6,29.88,NNE,22,0.0,0.0,91,0.00,,,0.00,WUHU21623XXSP,2013-03-15 11:10:00,
2013-03-15 06:15:00,22.8,20.6,29.89,WSW,247,0.0,0.0,91,0.00,,,0.00,WUHU21623XXSP,2013-03-15 11:15:00,
2013-03-15 06:20:00,23.2,20.7,29.89,WSW,247,0.0,0.0,91,0.00,,,0.00,WUHU21623XXSP,2013-03-15 11:20:00,
2013-03-15 06:25:00,23.4,21.1,29.89,North,0,0.0,0.0,91,0.00,,,0.00,WUHU21623XXSP,2013-03-15 11:25:00,
2013-03-15 06:30:00,23.5,21.1,29.90,NW,315,0.0,0.0,91,0.00,,,0.00,WUHU21623XXSP,2013-03-15 11:30:00,
2013-03-15 06:35:00,23.7,21.3,29.90,West,270,0.0,0.0,91,0.00,,,0.00,WUHU21623XXSP,2013-03-15 11:35:00,
2013-03-15 06:40:00,23.9,21.6,29.90,West,270,0.0,0.0,91,0.00,,,0.00,WUHU21623XXSP,2013-03-15 11:40:00,
2013-03-15 06:45:00,24.1,21.8,29.90,West,270,0.0,0.0,91,0.00,,,0.00,WUHU21623XXSP,2013-03-15 11:45:00,
2013-03-15 06:50:00,24.6,22.4,29.90,WSW,247,0.0,0.0,91,0.00,,,0.00,WUHU21623XXSP,2013-03-15 11:50:00,
2013-03-15 06:55:00,24.4,22.2,29.90,WSW,247,0.0,0.0,91,0.00,,,0.00,WUHU21623XXSP,2013-03-15 11:55:00,
2013-03-15 07:00:00,24.4,22.2,29.90,WNW,292,0.0,0.0,91,0.00,,,0.00,WUHU21623XXSP,2013-03-15 12:00:00,
2013-03-15 07:05:00,24.1,21.8,29.90,WNW,292,0.0,0.0,91,0.00,,,0.00,WUHU21623XXSP,2013-03-15 12:05:00,
2013-03-15 07:10:00,24.1,21.8,29.90,WNW,292,0.0,0.0,91,0.00,,,0.00,WUHU21623XXSP,2013-03-15 12:10:00,
2013-03-15 07:15:00,23.9,21.6,29.90,WNW,292,0.0,0.0,91,0.00,,,0.00,WUHU21623XXSP,2013-03-15 12:15:00,
2013-03-15 07:20:00,23.5,21.5,29.90,WNW,292,0.0,0.0,91,0.00,,,0.00,WUHU21623XXSP,2013-03-15 12:20:00,
2013-03-15 07:25:00,23.5,21.3,29.90,West,270,0.0,0.0,91,0.00,,,0.00,WUHU21623XXSP,2013-03-15 12:25:00,
2013-03-15 07:30:00,23.9,21.6,29.90,West,270,0.0,0.0,91,0.00,,,0.00,WUHU21623XXSP,2013-03-15 12:30:00,
2013-03-15 07:35:00,24.1,21.8,29.90,West,270,0.0,0.0,91,0.00,,,0.00,WUHU21623XXSP,2013-03-15 12:35:00,
2013-03-15 07:40:00,24.3,22.0,29.90,South,180,0.0,0.0,91,0.00,,,0.00,WUHU21623XXSP,2013-03-15 12:40:00,
2013-03-15 07:45:00,24.4,22.2,29.90,North,0,0.0,0.0,91,0.00,,,0.00,WUHU21623XXSP,2013-03-15 12:45:00,
2013-03-15 07:50:00,24.6,22.4,29.90,North,0,0.0,0.0,91,0.00,,,0.00,WUHU21623XXSP,2013-03-15 12:50:00,
2013-03-15 07:55:00,24.6,22.4,29.90,North,0,0.0,0.0,91,0.00,,,0.00,WUHU21623XXSP,2013-03-15 12:55:00,
2013-03-15 08:00:00,24.8,22.5,29.90,NE,45,0.0,0.0,91,0.00,,,0.00,WUHU21623XXSP,2013-03-15 13:00:00,
2013-03-15 08:05:00,25.0,22.7,29.89,NE,45,0.0,0.0,91,0.00,,,0.00,WUHU21623XXSP,2013-03-15 13:05:00,
2013-03-15 08:10:00,25.0,22.7,29.90,NW,315,0.0,0.0,91,0.00,,,0.00,WUHU21623XXSP,2013-03-15 13:10:00,
2013-03-15 08:15:00,25.3,23.1,29.89,NNE,22,0.0,0.0,91,0.00,,,0.00,WUHU21623XXSP,2013-03-15 13:15:00,
2013-03-15 08:20:00,25.5,23.3,29.89,NNE,22,0.0,0.0,91,0.00,,,0.00,WUHU21623XXSP,2013-03-15 13:20:00,
2013-03-15 08:25:00,25.9,23.6,29.89,SSW,202,1.8,1.8,91,0.00,,,0.00,WUHU21623XXSP,2013-03-15 13:25:00,
2013-03-15 08:30:00,26.4,24.4,29.88,WSW,247,0.0,1.8,92,0.00,,,0.00,WUHU21623XXSP,2013-03-15 13:30:00,
2013-03-15 08:35:00,27.0,24.4,29.88,WSW,247,0.0,1.8,92,0.00,,,0.00,WUHU21623XXSP,2013-03-15 13:35:00,
2013-03-15 08:40:00,27.3,25.1,29.88,West,270,0.0,0.0,92,0.00,,,0.00,WUHU21623XXSP,2013-03-15 13:40:00,
2013-03-15 08:45:00,27.5,25.5,29.88,East,90,0.0,0.0,92,0.00,,,0.00,WUHU21623XXSP,2013-03-15 13:45:00,
2013-03-15 08:50:00,27.7,25.7,29.88,WNW,292,0.0,0.0,92,0.00,,,0.00,WUHU21623XXSP,2013-03-15 13:50:00,
2013-03-15 08:55:00,27.7,25.7,29.88,WNW,292,0.0,0.0,92,0.00,,,0.00,WUHU21623XXSP,2013-03-15 13:55:00,
2013-03-15 09:00:00,28.2,26.0,29.88,NNE,22,2.2,2.2,91,0.00,,,0.00,WUHU21623XXSP,2013-03-15 14:00:00,
2013-03-15 09:05:00,28.6,26.3,29.88,NNE,22,0.0,2.2,91,0.00,,,0.00,WUHU21623XXSP,2013-03-15 14:05:00,
2013-03-15 09:10:00,28.9,26.7,29.87,ESE,112,0.0,0.0,91,0.00,,,0.00,WUHU21623XXSP,2013-03-15 14:10:00,
2013-03-15 09:15:00,29.8,27.6,29.88,West,270,0.0,0.0,91,0.00,,,0.00,WUHU21623XXSP,2013-03-15 14:15:00,
2013-03-15 09:20:00,30.4,27.8,29.87,WNW,292,0.0,0.0,92,0.00,,,0.00,WUHU21623XXSP,2013-03-15 14:20:00,
2013-03-15 09:25:00,30.7,28.5,29.86,NW,315,0.0,0.0,92,0.00,,,0.00,WUHU21623XXSP,2013-03-15 14:25:00,
2013-03-15 09:30:00,31.3,28.8,29.86,NNE,22,5.4,5.4,90,0.00,,,0.00,WUHU21623XXSP,2013-03-15 14:30:00,
2013-03-15 09:35:00,31.6,29.1,29.86,NNW,337,0.0,5.4,90,0.00,,,0.00,WUHU21623XXSP,2013-03-15 14:35:00,
2013-03-15 09:40:00,31.6,29.1,29.86,NNE,22,1.6,1.6,90,0.00,,,0.00,WUHU21623XXSP,2013-03-15 14:40:00,
2013-03-15 09:45:00,31.8,29.1,29.85,NE,45,1.6,1.6,90,0.00,,,0.00,WUHU21623XXSP,2013-03-15 14:45:00,
2013-03-15 09:50:00,32.2,29.6,29.86,West,270,0.0,1.6,90,0.00,,,0.00,WUHU21623XXSP,2013-03-15 14:50:00,
2013-03-15 09:55:00,32.5,30.0,29.86,West,270,0.0,0.0,90,0.00,,,0.00,WUHU21623XXSP,2013-03-15 14:55:00,
2013-03-15 10:00:00,32.9,30.0,29.86,WSW,247,0.0,0.0,89,0.00,,,0.00,WUHU21623XXSP,2013-03-15 15:00:00,
2013-03-15 10:05:00,33.4,30.5,29.86,WSW,247,0.0,0.0,89,0.00,,,0.00,WUHU21623XXSP,2013-03-15 15:05:00,
2013-03-15 10:10:00,33.4,30.5,29.87,West,270,0.0,0.0,89,0.00,,,0.00,WUHU21623XXSP,2013-03-15 15:10:00,
2013-03-15 10:15:00,33.4,30.2,29.86,West,270,0.0,0.7,88,0.00,,,0.00,WUHU21623XXSP,2013-03-15 15:15:00,
2013-03-15 10:20:00,33.6,30.4,29.86,WSW,247,0.0,0.7,88,0.00,,,0.00,WUHU21623XXSP,2013-03-15 15:20:00,
2013-03-15 10:25:00,34.2,30.9,29.87,WNW,292,0.0,0.0,88,0.00,,,0.00,WUHU21623XXSP,2013-03-15 15:25:00,
2013-03-15 10:30:00,34.3,30.8,29.87,North,0,0.0,0.0,87,0.00,,,0.00,WUHU21623XXSP,2013-03-15 15:30:00,
2013-03-15 10:35:00,34.9,31.1,29.87,NNW,337,0.0,0.0,87,0.00,,,0.00,WUHU21623XXSP,2013-03-15 15:35:00,
2013-03-15 10:40:00,34.9,31.0,29.86,NW,315,0.0,0.0,86,0.00,,,0.00,WUHU21623XXSP,2013-03-15 15:40:00,
2013-03-15 10:45:00,34.7,30.7,29.87,North,0,0.7,0.7,85,0.00,,,0.00,WUHU21623XXSP,2013-03-15 15:45:00,
2013-03-15 10:50:00,34.9,30.7,29.87,North,0,0.0,0.7,85,0.00,,,0.00,WUHU21623XXSP,2013-03-15 15:50:00,
2013-03-15 10:55:00,34.9,30.5,29.87,North,0,0.0,0.7,84,0.00,,,0.00,WUHU21623XXSP,2013-03-15 15:55:00,
2013-03-15 11:00:00,35.4,30.7,29.86,NE,45,0.0,0.0,83,0.00,,,0.00,WUHU21623XXSP,2013-03-15 16:00:00,
2013-03-15 11:05:00,35.8,31.1,29.87,ENE,67,0.0,0.0,83,0.00,,,0.00,WUHU21623XXSP,2013-03-15 16:05:00,
2013-03-15 11:10:00,35.4,30.7,29.86,ENE,67,2.5,2.5,83,0.00,,,0.00,WUHU21623XXSP,2013-03-15 16:10:00,
2013-03-15 11:15:00,34.9,30.2,29.86,NNE,22,3.4,4.0,83,0.00,,,0.00,WUHU21623XXSP,2013-03-15 16:15:00,
2013-03-15 11:20:00,34.9,30.2,29.85,NNE,22,0.0,4.0,83,0.00,,,0.00,WUHU21623XXSP,2013-03-15 16:20:00,
2013-03-15 11:25:00,34.9,30.2,29.86,NE,45,0.0,3.4,83,0.00,,,0.00,WUHU21623XXSP,2013-03-15 16:25:00,
2013-03-15 11:30:00,35.2,30.5,29.86,NNE,22,2.7,2.7,83,0.00,,,0.00,WUHU21623XXSP,2013-03-15 16:30:00,
2013-03-15 11:35:00,34.9,30.2,29.86,NE,45,4.9,5.8,83,0.00,,,0.00,WUHU21623XXSP,2013-03-15 16:35:00,
2013-03-15 11:40:00,34.5,30.0,29.85,NE,45,4.9,5.8,83,0.00,,,0.00,WUHU21623XXSP,2013-03-15 16:40:00,
2013-03-15 11:45:00,34.7,30.3,29.85,East,90,2.5,4.9,84,0.00,,,0.00,WUHU21623XXSP,2013-03-15 16:45:00,
2013-03-15 11:50:00,34.9,30.5,29.86,NNE,22,0.0,2.9,84,0.00,,,0.00,WUHU21623XXSP,2013-03-15 16:50:00,
2013-03-15 11:55:00,34.9,30.5,29.85,ENE,67,2.9,2.9,84,0.02,,,0.00,WUHU21623XXSP,2013-03-15 16:55:00,
2013-03-15 12:00:00,34.7,30.3,29.86,NE,45,2.0,2.9,84,0.02,,,0.02,WUHU21623XXSP,2013-03-15 17:00:00,
2013-03-15 12:05:00,34.3,30.2,29.86,NE,45,0.9,3.1,85,0.02,,,0.02,WUHU21623XXSP,2013-03-15 17:05:00,
2013-03-15 12:10:00,34.3,30.2,29.86,NNE,22,0.0,3.1,85,0.02,,,0.02,WUHU21623XXSP,2013-03-15 17:10:00,
2013-03-15 12:15:00,34.3,30.5,29.86,NE,45,2.2,3.1,86,0.02,,,0.02,WUHU21623XXSP,2013-03-15 17:15:00,
2013-03-15 12:20:00,34.0,30.1,29.85,NE,45,1.3,3.1,86,0.02,,,0.02,WUHU21623XXSP,2013-03-15 17:20:00,
2013-03-15 12:25:00,34.2,30.6,29.86,NE,45,0.0,2.2,87,0.02,,,0.02,WUHU21623XXSP,2013-03-15 17:25:00,
2013-03-15 12:30:00,34.3,30.8,29.86,ENE,67,0.0,0.0,87,0.04,,,0.02,WUHU21623XXSP,2013-03-15 17:30:00,
2013-03-15 12:35:00,34.5,31.0,29.86,East,90,0.0,0.0,87,0.04,,,0.04,WUHU21623XXSP,2013-03-15 17:35:00,
2013-03-15 12:40:00,34.3,30.8,29.86,ENE,67,2.2,2.2,87,0.06,,,0.06,WUHU21623XXSP,2013-03-15 17:40:00,
2013-03-15 12:45:00,34.0,30.4,29.86,ENE,67,2.2,2.7,87,0.06,,,0.06,WUHU21623XXSP,2013-03-15 17:45:00,
2013-03-15 12:50:00,33.6,30.1,29.86,ENE,67,2.9,2.9,87,0.06,,,0.06,WUHU21623XXSP,2013-03-15 17:50:00,
2013-03-15 12:55:00,33.8,30.5,29.86,NE,45,0.0,2.9,88,0.08,,,0.08,WUHU21623XXSP,2013-03-15 17:55:00,
2013-03-15 13:00:00,34.0,30.7,29.86,NE,45,0.0,3.1,88,0.08,,,0.10,WUHU21623XXSP,2013-03-15 18:00:00,
2013-03-15 13:05:00,34.2,30.9,29.86,NE,45,0.0,3.4,88,0.08,,,0.10,WUHU21623XXSP,2013-03-15 18:05:00,
2013-03-15 13:10:00,34.3,31.4,29.86,ENE,67,0.0,3.4,89,0.08,,,0.10,WUHU21623XXSP,2013-03-15 18:10:00,
2013-03-15 13:15:00,35.2,32.3,29.86,ENE,67,0.0,1.8,89,0.10,,,0.12,WUHU21623XXSP,2013-03-15 18:15:00,
2013-03-15 13:20:00,35.4,32.1,29.86,NE,45,0.0,0.0,88,0.10,,,0.12,WUHU21623XXSP,2013-03-15 18:20:00,
2013-03-15 13:25:00,35.8,32.5,29.86,NE,45,0.0,0.0,88,0.10,,,0.12,WUHU21623XXSP,2013-03-15 18:25:00,
2013-03-15 13:30:00,36.1,32.6,29.86,NNE,22,0.0,0.0,87,0.08,,,0.12,WUHU21623XXSP,2013-03-15 18:30:00,
2013-03-15 13:35:00,35.8,32.2,29.85,NNE,22,0.9,0.9,87,0.08,,,0.12,WUHU21623XXSP,2013-03-15 18:35:00,
2013-03-15 13:40:00,35.4,31.9,29.86,NNE,22,1.6,1.6,87,0.06,,,0.12,WUHU21623XXSP,2013-03-15 18:40:00,
2013-03-15 13:45:00,34.9,31.6,29.85,NNE,22,0.0,2.2,88,0.08,,,0.12,WUHU21623XXSP,2013-03-15 18:45:00,
2013-03-15 13:50:00,34.9,31.6,29.85,NNE,22,3.6,3.6,88,0.08,,,0.14,WUHU21623XXSP,2013-03-15 18:50:00,
2013-03-15 13:55:00,34.7,31.4,29.85,North,0,0.0,3.6,88,0.04,,,0.14,WUHU21623XXSP,2013-03-15 18:55:00,
2013-03-15 14:00:00,34.5,31.2,29.85,NNE,22,2.0,2.0,88,0.04,,,0.14,WUHU21623XXSP,2013-03-15 19:00:00,
2013-03-15 14:05:00,34.5,31.2,29.85,NNE,22,2.5,2.5,88,0.04,,,0.14,WUHU21623XXSP,2013-03-15 19:05:00,
2013-03-15 14:10:00,34.7,31.4,29.84,NE,45,3.1,3.1,88,0.02,,,0.14,WUHU21623XXSP,2013-03-15 19:10:00,
2013-03-15 14:15:00,34.3,31.4,29.84,NE,45,1.1,3.1,89,0.04,,,0.16,WUHU21623XXSP,2013-03-15 19:15:00,
2013-03-15 14:20:00,34.3,31.4,29.84,NE,45,1.6,3.1,89,0.04,,,0.16,WUHU21623XXSP,2013-03-15 19:20:00,
2013-03-15 14:25:00,34.3,31.4,29.84,NE,45,2.2,3.1,89,0.04,,,0.16,WUHU21623XXSP,2013-03-15 19:25:00,
2013-03-15 14:30:00,34.2,31.2,29.83,NE,45,1.8,2.9,89,0.04,,,0.16,WUHU21623XXSP,2013-03-15 19:30:00,
2013-03-15 14:35:00,34.2,31.2,29.83,NE,45,2.5,3.4,89,0.04,,,0.16,WUHU21623XXSP,2013-03-15 19:35:00,
2013-03-15 14:40:00,34.0,31.0,29.82,NE,45,1.8,3.8,89,0.04,,,0.16,WUHU21623XXSP,2013-03-15 19:40:00,
2013-03-15 14:45:00,34.0,31.0,29.82,NE,45,3.6,3.8,89,0.04,,,0.16,WUHU21623XXSP,2013-03-15 19:45:00,
2013-03-15 14:50:00,33.8,30.8,29.82,ENE,67,3.1,3.6,89,0.04,,,0.18,WUHU21623XXSP,2013-03-15 19:50:00,
2013-03-15 14:55:00,33.8,30.6,29.82,ENE,67,2.2,3.1,90,0.04,,,0.18,WUHU21623XXSP,2013-03-15 19:55:00,
2013-03-15 15:00:00,33.8,31.1,29.82,ENE,67,3.4,3.8,90,0.04,,,0.18,WUHU21623XXSP,2013-03-15 20:00:00,
2013-03-15 15:05:00,33.8,31.1,29.82,ENE,67,3.8,3.8,90,0.04,,,0.18,WUHU21623XXSP,2013-03-15 20:05:00,
2013-03-15 15:10:00,33.8,31.1,29.81,ENE,67,4.0,4.0,90,0.02,,,0.18,WUHU21623XXSP,2013-03-15 20:10:00,
2013-03-15 15:15:00,34.0,31.3,29.81,ENE,67,3.6,5.1,90,0.02,,,0.18,WUHU21623XXSP,2013-03-15 20:15:00,
2013-03-15 15:20:00,34.0,31.3,29.80,ENE,67,4.5,5.1,90,0.02,,,0.18,WUHU21623XXSP,2013-03-15 20:20:00,
2013-03-15 15:25:00,34.0,31.3,29.80,ENE,67,4.3,4.9,90,0.02,,,0.18,WUHU21623XXSP,2013-03-15 20:25:00,
2013-03-15 15:30:00,34.0,31.3,29.80,East,90,4.3,6.3,90,0.02,,,0.18,WUHU21623XXSP,2013-03-15 20:30:00,
2013-03-15 15:35:00,34.0,31.6,29.79,East,90,5.1,6.3,91,0.02,,,0.18,WUHU21623XXSP,2013-03-15 20:35:00,
2013-03-15 15:40:00,34.0,31.6,29.80,East,90,3.4,5.1,91,0.02,,,0.18,WUHU21623XXSP,2013-03-15 20:40:00,
2013-03-15 15:45:00,34.2,31.5,29.79,East,90,3.1,6.0,90,0.00,,,0.18,WUHU21623XXSP,2013-03-15 20:45:00,
2013-03-15 15:50:00,34.2,31.5,29.79,ENE,67,4.9,6.0,90,0.00,,,0.18,WUHU21623XXSP,2013-03-15 20:50:00,
2013-03-15 15:55:00,34.2,31.5,29.78,ENE,67,3.8,5.4,90,0.00,,,0.18,WUHU21623XXSP,2013-03-15 20:55:00,
2013-03-15 16:00:00,34.3,31.6,29.78,East,90,6.7,6.7,90,0.00,,,0.18,WUHU21623XXSP,2013-03-15 21:00:00,
2013-03-15 16:05:00,34.3,31.6,29.78,East,90,6.7,6.7,90,0.00,,,0.18,WUHU21623XXSP,2013-03-15 21:05:00,
2013-03-15 16:10:00,34.5,31.8,29.78,ESE,112,8.3,8.3,90,0.00,,,0.18,WUHU21623XXSP,2013-03-15 21:10:00,
2013-03-15 16:15:00,34.3,31.6,29.77,ENE,67,9.4,9.4,90,0.00,,,0.18,WUHU21623XXSP,2013-03-15 21:15:00,
2013-03-15 16:20:00,34.2,31.5,29.76,East,90,9.8,9.8,90,0.00,,,0.18,WUHU21623XXSP,2013-03-15 21:20:00,
2013-03-15 16:25:00,34.2,31.5,29.76,East,90,9.4,9.8,90,0.00,,,0.18,WUHU21623XXSP,2013-03-15 21:25:00,
2013-03-15 16:30:00,34.0,31.3,29.76,East,90,6.0,9.4,90,0.00,,,0.18,WUHU21623XXSP,2013-03-15 21:30:00,
2013-03-15 16:35:00,34.0,31.3,29.76,ENE,67,5.6,9.4,90,0.00,,,0.18,WUHU21623XXSP,2013-03-15 21:35:00,
2013-03-15 16:40:00,34.0,31.0,29.76,SE,135,6.3,6.3,89,0.00,,,0.18,WUHU21623XXSP,2013-03-15 21:40:00,
2013-03-15 16:45:00,33.8,31.1,29.76,ENE,67,7.4,7.4,90,0.00,,,0.18,WUHU21623XXSP,2013-03-15 21:45:00,
2013-03-15 16:50:00,33.8,31.1,29.76,ESE,112,8.1,8.1,90,0.00,,,0.18,WUHU21623XXSP,2013-03-15 21:50:00,
2013-03-15 16:55:00,33.8,31.1,29.76,ENE,67,5.8,11.4,90,0.00,,,0.18,WUHU21623XXSP,2013-03-15 21:55:00,
2013-03-15 17:00:00,33.6,30.9,29.76,East,90,6.3,11.4,90,0.00,,,0.18,WUHU21623XXSP,2013-03-15 22:00:00,
2013-03-15 17:05:00,33.4,30.8,29.76,East,90,9.8,10.7,90,0.00,,,0.18,WUHU21623XXSP,2013-03-15 22:05:00,
2013-03-15 17:10:00,33.4,30.8,29.77,East,90,6.0,10.7,90,0.00,,,0.18,WUHU21623XXSP,2013-03-15 22:10:00,
2013-03-15 17:15:00,33.4,30.8,29.77,ENE,67,5.1,9.4,90,0.00,,,0.18,WUHU21623XXSP,2013-03-15 22:15:00,
2013-03-15 17:20:00,33.4,30.8,29.78,NE,45,4.7,9.4,90,0.00,,,0.18,WUHU21623XXSP,2013-03-15 22:20:00,
2013-03-15 17:25:00,33.6,30.9,29.79,NNE,22,5.4,5.4,90,0.00,,,0.18,WUHU21623XXSP,2013-03-15 22:25:00,
2013-03-15 17:30:00,33.4,30.8,29.80,NE,45,3.8,7.8,90,0.00,,,0.18,WUHU21623XXSP,2013-03-15 22:30:00,
2013-03-15 17:35:00,33.6,30.9,29.79,ESE,112,2.9,7.8,90,0.00,,,0.18,WUHU21623XXSP,2013-03-15 22:35:00,
2013-03-15 17:40:00,33.6,30.9,29.79,ESE,112,2.9,3.8,90,0.00,,,0.18,WUHU21623XXSP,2013-03-15 22:40:00,
2013-03-15 17:45:00,33.6,30.9,29.80,ENE,67,0.0,2.9,90,0.00,,,0.18,WUHU21623XXSP,2013-03-15 22:45:00,
2013-03-15 17:50:00,33.6,30.9,29.80,ENE,67,0.0,0.0,90,0.00,,,0.18,WUHU21623XXSP,2013-03-15 22:50:00,
2013-03-15 17:55:00,33.8,31.1,29.80,ENE,67,0.0,0.0,90,0.00,,,0.18,WUHU21623XXSP,2013-03-15 22:55:00,
2013-03-15 18:00:00,33.6,30.9,29.79,SSE,157,0.0,0.0,90,0.00,,,0.18,WUHU21623XXSP,2013-03-15 23:00:00,
2013-03-15 18:05:00,33.6,31.1,29.79,SSE,157,0.0,0.0,90,0.00,,,0.18,WUHU21623XXSP,2013-03-15 23:05:00,
2013-03-15 18:10:00,33.6,30.9,29.79,ESE,112,3.8,3.8,90,0.00,,,0.18,WUHU21623XXSP,2013-03-15 23:10:00,
2013-03-15 18:15:00,33.6,30.9,29.78,ESE,112,3.6,3.8,90,0.00,,,0.18,WUHU21623XXSP,2013-03-15 23:15:00,
2013-03-15 18:20:00,33.6,30.9,29.79,East,90,1.8,3.6,90,0.00,,,0.18,WUHU21623XXSP,2013-03-15 23:20:00,
2013-03-15 18:25:00,33.4,30.8,29.79,ESE,112,2.5,2.5,90,0.00,,,0.18,WUHU21623XXSP,2013-03-15 23:25:00,
2013-03-15 18:30:00,33.4,30.8,29.80,ESE,112,1.6,2.5,90,0.00,,,0.18,WUHU21623XXSP,2013-03-15 23:30:00,
2013-03-15 18:35:00,33.4,30.8,29.79,East,90,0.0,1.6,90,0.00,,,0.18,WUHU21623XXSP,2013-03-15 23:35:00,
2013-03-15 18:40:00,33.4,30.8,29.79,East,90,0.0,0.0,90,0.00,,,0.18,WUHU21623XXSP,2013-03-15 23:40:00,
2013-03-15 18:45:00,33.1,30.5,29.80,NE,45,0.0,0.0,90,0.00,,,0.18,WUHU21623XXSP,2013-03-15 23:45:00,
2013-03-15 18:50:00,33.1,30.7,29.80,ENE,67,0.0,0.0,91,0.00,,,0.18,WUHU21623XXSP,2013-03-15 23:50:00,
2013-03-15 18:55:00,33.3,30.9,29.80,ENE,67,0.0,0.0,91,0.00,,,0.18,WUHU21623XXSP,2013-03-15 23:55:00,
2013-03-15 19:00:00,32.9,30.5,29.79,East,90,3.8,3.8,91,0.00,,,0.18,WUHU21623XXSP,2013-03-16 00:00:00,
2013-03-15 19:05:00,32.9,30.5,29.79,East,90,1.1,4.5,91,0.00,,,0.18,WUHU21623XXSP,2013-03-16 00:05:00,
2013-03-15 19:10:00,33.1,30.7,29.80,East,90,3.4,4.5,91,0.00,,,0.18,WUHU21623XXSP,2013-03-16 00:10:00,
2013-03-15 19:15:00,32.9,30.5,29.80,ENE,67,2.9,3.4,91,0.00,,,0.18,WUHU21623XXSP,2013-03-16 00:15:00,
2013-03-15 19:20:00,32.7,30.4,29.80,East,90,2.2,3.6,91,0.00,,,0.18,WUHU21623XXSP,2013-03-16 00:20:00,
2013-03-15 19:25:00,32.9,30.5,29.80,ESE,112,1.8,3.6,91,0.00,,,0.18,WUHU21623XXSP,2013-03-16 00:25:00,
2013-03-15 19:30:00,32.7,30.5,29.79,East,90,3.6,3.6,92,0.00,,,0.18,WUHU21623XXSP,2013-03-16 00:30:00,
2013-03-15 19:35:00,32.7,30.6,29.80,East,90,6.3,6.3,92,0.00,,,0.18,WUHU21623XXSP,2013-03-16 00:35:00,
2013-03-15 19:40:00,32.7,30.6,29.80,East,90,6.7,6.7,92,0.00,,,0.18,WUHU21623XXSP,2013-03-16 00:40:00,
2013-03-15 19:45:00,32.7,30.6,29.80,East,90,4.7,6.7,92,0.00,,,0.18,WUHU21623XXSP,2013-03-16 00:45:00,
2013-03-15 19:50:00,32.7,30.6,29.80,East,90,9.8,9.8,92,0.00,,,0.18,WUHU21623XXSP,2013-03-16 00:50:00,
2013-03-15 19:55:00,32.7,30.6,29.80,East,90,4.5,9.8,92,0.00,,,0.18,WUHU21623XXSP,2013-03-16 00:55:00,
2013-03-15 20:00:00,32.7,30.6,29.80,East,90,7.6,7.6,92,0.00,,,0.18,WUHU21623XXSP,2013-03-16 01:00:00,
2013-03-15 20:05:00,32.7,30.6,29.80,ESE,112,6.0,7.6,92,0.00,,,0.18,WUHU21623XXSP,2013-03-16 01:05:00,
2013-03-15 20:10:00,32.7,30.6,29.80,East,90,9.4,9.4,92,0.00,,,0.18,WUHU21623XXSP,2013-03-16 01:10:00,
2013-03-15 20:15:00,32.7,30.6,29.79,ESE,112,2.9,9.4,92,0.00,,,0.18,WUHU21623XXSP,2013-03-16 01:15:00,
2013-03-15 20:20:00,32.7,30.6,29.80,East,90,3.1,3.8,92,0.00,,,0.18,WUHU21623XXSP,2013-03-16 01:20:00,
2013-03-15 20:25:00,32.7,30.6,29.79,ESE,112,6.0,6.0,92,0.00,,,0.18,WUHU21623XXSP,2013-03-16 01:25:00,
2013-03-15 20:30:00,32.7,30.6,29.78,East,90,4.5,6.0,92,0.00,,,0.18,WUHU21623XXSP,2013-03-16 01:30:00,
2013-03-15 20:35:00,32.7,30.6,29.79,East,90,4.7,5.6,92,0.00,,,0.18,WUHU21623XXSP,2013-03-16 01:35:00,
2013-03-15 20:40:00,32.7,30.6,29.78,ESE,112,4.0,5.8,92,0.00,,,0.18,WUHU21623XXSP,2013-03-16 01:40:00,
2013-03-15 20:45:00,32.7,30.6,29.78,East,90,4.7,5.8,92,0.00,,,0.18,WUHU21623XXSP,2013-03-16 01:45:00,
2013-03-15 20:50:00,32.5,30.6,29.77,East,90,4.7,4.7,92,0.00,,,0.18,WUHU21623XXSP,2013-03-16 01:50:00,
2013-03-15 20:55:00,32.4,30.3,29.77,East,90,10.5,10.5,92,0.00,,,0.18,WUHU21623XXSP,2013-03-16 01:55:00,
2013-03-15 21:00:00,32.2,30.1,29.77,East,90,10.5,10.5,92,0.00,,,0.18,WUHU21623XXSP,2013-03-16 02:00:00,
2013-03-15 21:05:00,31.8,29.8,29.77,ESE,112,7.4,13.6,92,0.00,,,0.18,WUHU21623XXSP,2013-03-16 02:05:00,
2013-03-15 21:10:00,31.8,29.8,29.76,ESE,112,8.5,13.6,92,0.00,,,0.18,WUHU21623XXSP,2013-03-16 02:10:00,
2013-03-15 21:15:00,31.6,29.8,29.76,East,90,6.3,8.5,92,0.00,,,0.18,WUHU21623XXSP,2013-03-16 02:15:00,
2013-03-15 21:20:00,31.6,29.6,29.76,East,90,6.3,6.3,92,0.00,,,0.18,WUHU21623XXSP,2013-03-16 02:20:00,
2013-03-15 21:25:00,31.6,29.6,29.76,East,90,9.8,9.8,92,0.00,,,0.18,WUHU21623XXSP,2013-03-16 02:25:00,
2013-03-15 21:30:00,31.3,29.3,29.77,East,90,10.5,10.5,92,0.00,,,0.18,WUHU21623XXSP,2013-03-16 02:30:00,
2013-03-15 21:35:00,31.3,29.3,29.76,East,90,12.8,12.8,92,0.00,,,0.18,WUHU21623XXSP,2013-03-16 02:35:00,
2013-03-15 21:40:00,31.1,29.1,29.76,ESE,112,12.5,12.8,92,0.00,,,0.18,WUHU21623XXSP,2013-03-16 02:40:00,
2013-03-15 21:45:00,31.1,29.1,29.75,East,90,9.2,12.5,92,0.00,,,0.18,WUHU21623XXSP,2013-03-16 02:45:00,
2013-03-15 21:50:00,30.9,28.9,29.75,East,90,14.8,15.7,92,0.00,,,0.18,WUHU21623XXSP,2013-03-16 02:50:00,
2013-03-15 21:55:00,30.9,28.9,29.76,NE,45,13.0,15.9,92,0.00,,,0.18,WUHU21623XXSP,2013-03-16 02:55:00,
2013-03-15 22:00:00,30.7,28.7,29.76,East,90,9.2,15.9,92,0.00,,,0.18,WUHU21623XXSP,2013-03-16 03:00:00,
2013-03-15 22:05:00,30.7,28.7,29.77,East,90,11.9,13.0,92,0.00,,,0.18,WUHU21623XXSP,2013-03-16 03:05:00,
2013-03-15 22:10:00,30.7,28.7,29.77,East,90,10.1,11.9,92,0.00,,,0.18,WUHU21623XXSP,2013-03-16 03:10:00,
2013-03-15 22:15:00,30.7,28.7,29.76,East,90,8.9,11.9,92,0.00,,,0.18,WUHU21623XXSP,2013-03-16 03:15:00,
2013-03-15 22:20:00,30.7,28.7,29.75,East,90,7.6,8.9,92,0.00,,,0.18,WUHU21623XXSP,2013-03-16 03:20:00,
2013-03-15 22:25:00,30.7,28.5,29.77,East,90,5.8,8.7,91,0.00,,,0.18,WUHU21623XXSP,2013-03-16 03:25:00,
2013-03-15 22:30:00,30.7,28.5,29.77,East,90,14.1,14.1,91,0.00,,,0.18,WUHU21623XXSP,2013-03-16 03:30:00,
2013-03-15 22:35:00,30.7,28.5,29.76,East,90,9.8,14.1,91,0.00,,,0.18,WUHU21623XXSP,2013-03-16 03:35:00,
2013-03-15 22:40:00,30.7,28.2,29.77,East,90,12.3,12.5,90,0.00,,,0.18,WUHU21623XXSP,2013-03-16 03:40:00,
2013-03-15 22:45:00,30.6,28.0,29.76,East,90,11.9,12.3,90,0.00,,,0.18,WUHU21623XXSP,2013-03-16 03:45:00,
2013-03-15 22:50:00,30.6,28.0,29.76,East,90,11.4,11.9,90,0.00,,,0.18,WUHU21623XXSP,2013-03-16 03:50:00,
2013-03-15 22:55:00,30.4,27.9,29.75,East,90,11.4,11.4,90,0.00,,,0.18,WUHU21623XXSP,2013-03-16 03:55:00,
2013-03-15 23:00:00,30.4,27.9,29.75,East,90,10.7,11.4,90,0.00,,,0.18,WUHU21623XXSP,2013-03-16 04:00:00,
2013-03-15 23:05:00,30.2,27.7,29.76,East,90,8.9,13.0,90,0.00,,,0.18,WUHU21623XXSP,2013-03-16 04:05:00,
2013-03-15 23:10:00,30.2,27.7,29.75,East,90,10.5,13.0,90,0.00,,,0.18,WUHU21623XXSP,2013-03-16 04:10:00,
2013-03-15 23:15:00,30.0,27.5,29.75,East,90,8.9,10.5,90,0.00,,,0.18,WUHU21623XXSP,2013-03-16 04:15:00,
2013-03-15 23:20:00,30.0,27.5,29.75,East,90,8.3,10.5,90,0.00,,,0.18,WUHU21623XXSP,2013-03-16 04:20:00,
2013-03-15 23:25:00,30.0,27.5,29.75,East,90,10.3,11.6,90,0.00,,,0.18,WUHU21623XXSP,2013-03-16 04:25:00,
2013-03-15 23:30:00,30.0,27.5,29.75,East,90,6.0,11.6,90,0.00,,,0.18,WUHU21623XXSP,2013-03-16 04:30:00,
2013-03-15 23:35:00,29.8,27.0,29.75,East,90,9.8,10.1,89,0.00,,,0.18,WUHU21623XXSP,2013-03-16 04:35:00,
2013-03-15 23:40:00,29.8,26.7,29.75,East,90,11.0,11.0,88,0.00,,,0.18,WUHU21623XXSP,2013-03-16 04:40:00,
2013-03-15 23:45:00,29.8,26.7,29.74,East,90,15.9,15.9,87,0.00,,,0.18,WUHU21623XXSP,2013-03-16 04:45:00,
2013-03-15 23:50:00,29.8,26.2,29.75,East,90,14.5,15.9,86,0.00,,,0.18,WUHU21623XXSP,2013-03-16 04:50:00,
2013-03-15 23:55:00,29.8,26.2,29.75,East,90,6.7,15.9,86,0.00,,,0.18,WUHU21623XXSP,2013-03-16 04:55:00,